ICE112 BGGH-BIKF

Flight info

Callsign ICE112
Flight time N/A
Altitude 37000
Route EVULO1A EVULO DCT DEVNU DCT GOKIK DCT GIRUG GIRUG4K
Aircraft A21N/M-SDE2E3FGHIRWXY/LB1

Departure

Time 2026-04-27 19:35
Airport Nuuk International Airport (BGGH)

Arrival

Time N/A
Airport Keflavik International Airport (BIKF)
Time Latitude Longitude Altitude Speed Heading
2026-04-27 19:03 64.18546 -51.67747 282 ft 0 kts 148°
2026-04-27 19:06 64.18558 -51.67765 284 ft 0 kts 148°
2026-04-27 19:27 64.18573 -51.67787 283 ft 4 kts 148°
2026-04-27 19:27 64.18596 -51.67819 288 ft 4 kts 150°
2026-04-27 19:27 64.18620 -51.67848 286 ft 4 kts 156°
2026-04-27 19:28 64.18645 -51.67870 287 ft 4 kts 174°
2026-04-27 19:28 64.18662 -51.67872 286 ft 1 kts 198°
2026-04-27 19:31 64.18639 -51.67891 286 ft 9 kts 203°
2026-04-27 19:32 64.18632 -51.68008 282 ft 11 kts 284°
2026-04-27 19:32 64.18653 -51.68249 282 ft 0 kts 256°
2026-04-27 19:32 64.18610 -51.68327 282 ft 21 kts 205°
2026-04-27 19:32 64.18406 -51.68444 283 ft 35 kts 198°
2026-04-27 19:33 64.18245 -51.68538 280 ft 14 kts 174°
2026-04-27 19:33 64.18173 -51.68527 280 ft 17 kts 191°
2026-04-27 19:33 64.18167 -51.68620 280 ft 4 kts 339°
2026-04-27 19:33 64.18205 -51.68583 280 ft 0 kts 17°
2026-04-27 19:34 64.18329 -51.68495 281 ft 57 kts 18°
2026-04-27 19:34 64.18961 -51.68032 285 ft 129 kts 18°
2026-04-27 19:34 64.19881 -51.67336 819 ft 142 kts 16°
2026-04-27 19:35 64.20858 -51.66648 1728 ft 151 kts
2026-04-27 19:35 64.21942 -51.66171 2400 ft 168 kts
2026-04-27 19:35 64.23169 -51.65942 3001 ft 185 kts 355°
2026-04-27 19:35 64.24472 -51.66773 3507 ft 207 kts 332°
2026-04-27 19:36 64.25587 -51.69020 4107 ft 230 kts 304°
2026-04-27 19:36 64.26064 -51.72671 4951 ft 248 kts 272°
2026-04-27 19:36 64.25613 -51.76580 5936 ft 263 kts 244°
2026-04-27 19:36 64.24358 -51.79762 6335 ft 276 kts 216°
2026-04-27 19:37 64.22547 -51.81318 6401 ft 285 kts 187°
2026-04-27 19:37 64.20586 -51.80802 6394 ft 287 kts 161°
2026-04-27 19:37 64.18704 -51.79181 6523 ft 290 kts 159°
2026-04-27 19:37 64.16767 -51.77738 7223 ft 294 kts 165°
2026-04-27 19:38 64.14756 -51.76728 8209 ft 299 kts 170°
2026-04-27 19:38 64.12740 -51.75489 9113 ft 308 kts 158°
2026-04-27 19:38 64.10821 -51.73213 9990 ft 315 kts 147°
2026-04-27 19:38 64.08883 -51.70565 10522 ft 335 kts 147°
2026-04-27 19:39 64.06849 -51.67625 10863 ft 356 kts 137°
2026-04-27 19:39 64.05267 -51.63291 11474 ft 357 kts 112°
2026-04-27 19:39 64.04516 -51.57976 12318 ft 348 kts 89°
2026-04-27 19:39 64.04670 -51.52571 13136 ft 339 kts 69°
2026-04-27 19:40 64.05383 -51.47454 13946 ft 338 kts 62°
2026-04-27 19:40 64.06215 -51.42378 14678 ft 343 kts 63°
2026-04-27 19:40 64.07013 -51.37203 15398 ft 348 kts 65°
2026-04-27 19:40 64.07744 -51.31956 16091 ft 354 kts 67°
2026-04-27 19:41 64.08455 -51.26452 16812 ft 359 kts 68°
2026-04-27 19:41 64.09145 -51.21003 17498 ft 362 kts 66°
2026-04-27 19:41 64.10090 -51.15669 18165 ft 363 kts 58°
2026-04-27 19:41 64.11349 -51.10649 18759 ft 364 kts 54°
2026-04-27 19:42 64.12682 -51.05667 19337 ft 368 kts 54°
2026-04-27 19:42 64.14022 -51.00620 19897 ft 373 kts 55°
2026-04-27 19:42 64.15372 -50.95514 20441 ft 377 kts 55°
2026-04-27 19:42 64.16272 -50.92094 20846 ft 378 kts 56°
2026-04-27 19:43 64.17638 -50.86895 21403 ft 383 kts 56°
2026-04-27 19:43 64.19017 -50.81632 21951 ft 386 kts 56°
2026-04-27 19:43 64.20407 -50.76312 22526 ft 390 kts 56°
2026-04-27 19:43 64.21801 -50.70960 23094 ft 393 kts 56°
2026-04-27 19:44 64.23211 -50.65539 23611 ft 396 kts 57°
2026-04-27 19:44 64.24628 -50.60084 24047 ft 399 kts 57°
2026-04-27 19:44 64.26057 -50.54560 24446 ft 403 kts 57°
2026-04-27 19:44 64.27496 -50.48991 24861 ft 407 kts 57°
2026-04-27 19:45 64.28945 -50.43366 25272 ft 410 kts 57°
2026-04-27 19:45 64.30411 -50.37671 25680 ft 414 kts 57°
2026-04-27 19:45 64.31884 -50.31928 26075 ft 418 kts 57°
2026-04-27 19:45 64.33365 -50.26130 26442 ft 422 kts 57°
2026-04-27 19:46 64.34840 -50.20348 26825 ft 425 kts 57°
2026-04-27 19:46 64.36340 -50.14446 27190 ft 428 kts 57°
2026-04-27 19:46 64.37754 -50.08314 27542 ft 433 kts 62°
2026-04-27 19:46 64.39323 -50.02391 27868 ft 432 kts 49°
2026-04-27 19:47 64.41435 -49.97467 28193 ft 431 kts 37°
2026-04-27 19:47 64.43705 -49.93044 28503 ft 434 kts 38°
2026-04-27 19:47 64.46184 -49.89070 28806 ft 433 kts 25°
2026-04-27 19:47 64.48986 -49.86511 29107 ft 432 kts 12°
2026-04-27 19:48 64.51959 -49.85503 29386 ft 432 kts 359°
2026-04-27 19:48 64.54947 -49.86070 29569 ft 432 kts 347°
2026-04-27 19:48 64.57807 -49.88143 29449 ft 431 kts 335°
2026-04-27 19:48 64.60391 -49.91629 29042 ft 430 kts 322°
2026-04-27 19:49 64.62557 -49.96397 28590 ft 428 kts 310°
2026-04-27 19:49 64.64189 -50.02186 27991 ft 427 kts 296°
2026-04-27 19:49 64.65199 -50.08713 27212 ft 428 kts 283°
2026-04-27 19:49 64.65520 -50.15542 26330 ft 430 kts 269°
2026-04-27 19:50 64.65117 -50.22431 25535 ft 429 kts 255°
2026-04-27 19:50 64.64002 -50.28857 24769 ft 426 kts 240°
2026-04-27 19:50 64.62245 -50.34393 24017 ft 423 kts 225°
2026-04-27 19:50 64.60009 -50.38790 23234 ft 419 kts 215°
2026-04-27 19:51 64.57618 -50.42657 22278 ft 418 kts 213°
2026-04-27 19:51 64.55335 -50.46825 21353 ft 415 kts 225°
2026-04-27 19:51 64.53562 -50.52078 20471 ft 412 kts 240°
2026-04-27 19:51 64.52430 -50.58122 19631 ft 406 kts 255°
2026-04-27 19:52 64.51769 -50.64425 18860 ft 396 kts 259°
2026-04-27 19:52 64.51205 -50.70512 18112 ft 384 kts 260°
2026-04-27 19:52 64.50655 -50.76567 17238 ft 374 kts 260°
2026-04-27 19:52 64.50126 -50.82326 16415 ft 365 kts 260°
2026-04-27 19:53 64.49062 -50.93597 14809 ft 350 kts 260°
2026-04-27 19:53 64.48535 -50.99071 14029 ft 344 kts 261°
2026-04-27 19:53 64.48011 -51.04460 13213 ft 339 kts 261°
2026-04-27 19:54 64.47494 -51.09742 12456 ft 332 kts 261°
2026-04-27 19:54 64.46988 -51.14907 11748 ft 327 kts 262°
2026-04-27 19:54 64.46497 -51.19925 11096 ft 323 kts 262°
2026-04-27 19:54 64.46004 -51.24945 10424 ft 318 kts 262°
2026-04-27 19:55 64.45512 -51.29930 9760 ft 313 kts 262°
2026-04-27 19:55 64.45035 -51.34798 9035 ft 305 kts 262°
2026-04-27 19:55 64.44570 -51.39531 8342 ft 299 kts 262°
2026-04-27 19:55 64.44111 -51.44182 7645 ft 293 kts 260°
2026-04-27 19:56 64.43200 -51.48392 6963 ft 298 kts 230°
2026-04-27 19:56 64.41494 -51.51088 6278 ft 300 kts 205°
2026-04-27 19:56 64.39522 -51.52672 5529 ft 299 kts 197°
2026-04-27 19:56 64.37546 -51.54081 4798 ft 296 kts 200°
2026-04-27 19:57 64.35600 -51.55540 4071 ft 293 kts 200°
2026-04-27 19:57 64.33676 -51.56996 3405 ft 288 kts 200°
2026-04-27 19:57 64.31805 -51.58403 2959 ft 276 kts 200°
2026-04-27 19:57 64.30055 -51.59718 2565 ft 261 kts 200°
2026-04-27 19:58 64.28373 -51.60982 2194 ft 247 kts 201°
2026-04-27 19:58 64.26850 -51.62121 1884 ft 210 kts 201°
2026-04-27 19:58 64.25566 -51.63082 1559 ft 179 kts 202°
2026-04-27 19:58 64.24460 -51.63914 1269 ft 158 kts 202°
2026-04-27 19:59 64.23456 -51.64670 1021 ft 146 kts 201°
2026-04-27 19:59 64.22502 -51.65386 813 ft 144 kts 201°
2026-04-27 19:59 64.21540 -51.66119 630 ft 150 kts 199°
2026-04-27 19:59 64.20529 -51.66872 409 ft 150 kts 199°
2026-04-27 20:00 64.19555 -51.67597 283 ft 142 kts 198°
2026-04-27 20:00 64.18880 -51.68093 284 ft 46 kts 197°
2026-04-27 20:00 64.18692 -51.68220 282 ft 8 kts 179°
2026-04-27 20:00 64.18640 -51.68012 282 ft 19 kts 103°
2026-04-27 20:01 64.18629 -51.67939 281 ft 3 kts 112°